Date,TemperatureHighF,TemperatureAvgF,TemperatureLowF,DewpointHighF,DewpointAvgF,DewpointLowF,HumidityHigh,HumidityAvg,HumidityLow,PressureMaxIn,PressureMinIn,WindSpeedMaxMPH,WindSpeedAvgMPH,GustSpeedMaxMPH,PrecipitationSumIn
2013-1-1,45.9,42.6,39.3,43.1,36.4,28.8,97,79,65,30.15,29.96,8,2,10,0.18
2013-1-2,46.6,41.2,36.2,42.9,36.5,31.3,97,84,64,30.21,29.95,5,1,8,0.07
2013-1-3,43.1,36.3,29.6,36.4,31.5,25.1,94,83,75,30.31,30.17,3,0,4,0.00
2013-1-4,40.6,31.2,27.7,25.9,23.5,21.8,81,73,50,30.38,30.29,9,2,10,0.00
2013-1-18,36.1,31.3,28.4,27.2,26.2,24.7,92,82,64,30.56,30.53,2,0,19,0.16
2013-1-19,51.9,38.6,26.5,33.6,28.4,23.8,90,69,43,30.52,30.18,9,3,10,0.00
2013-1-20,36.6,36.1,35.1,28.1,27.8,27.3,74,72,70,30.17,30.16,3,2,3,0.00
2013-1-21,44.0,39.9,37.7,17.3,16.7,14.2,43,39,33,30.00,29.96,9,5,14,0.00
2013-1-22,33.4,27.8,24.0,12.2,2.7,-0.9,48,34,25,30.33,30.03,13,6,25,0.00
2013-1-23,39.2,29.5,20.1,19.9,11.4,2.3,72,47,36,30.41,30.14,9,3,13,0.00
2013-1-24,38.9,29.8,20.0,27.7,15.2,6.1,79,55,38,30.57,30.03,16,5,24,0.00
2013-1-25,24.8,21.7,18.9,22.8,15.2,8.1,93,77,58,30.58,30.17,5,3,10,0.00
2013-1-26,40.2,29.9,22.4,29.2,25.4,20.8,96,84,60,30.43,30.16,6,2,8,0.06
2013-1-27,38.8,31.0,21.7,28.4,24.7,18.6,88,78,65,30.66,30.47,4,0,5,0.01
2013-1-28,49.5,39.8,33.3,41.6,35.9,28.3,95,86,72,30.52,30.25,9,5,13,0.02
2013-1-29,70.5,55.0,39.7,55.3,47.2,38.7,98,78,44,30.25,30.05,6,2,9,0.00
2013-1-30,67.9,62.9,50.5,62.3,58.9,49.1,95,87,81,30.04,29.40,10,6,18,0.93
2013-1-31,50.3,39.1,31.8,49.2,27.5,20.0,96,64,46,30.00,29.39,14,7,23,0.03
2013-2-1,32.9,30.0,26.3,24.6,18.6,11.0,73,63,50,30.18,29.90,14,6,22,0.00
2013-2-5,57.4,47.2,38.0,37.5,34.1,29.3,77,61,46,30.02,29.93,10,3,15,0.00
2013-2-6,57.8,43.9,34.4,33.8,28.5,19.5,87,59,25,30.31,30.00,5,1,10,0.00
2013-2-7,39.9,37.1,34.9,34.8,32.7,26.0,94,84,63,30.39,30.11,7,5,12,0.30
2013-2-8,54.8,41.9,34.6,46.2,34.7,26.6,95,78,44,30.11,29.88,13,6,16,0.12
2013-2-9,53.9,39.8,30.3,26.6,20.7,14.9,70,49,23,30.39,30.09,8,2,11,0.00
2013-2-10,52.0,36.8,26.9,37.4,22.5,18.5,91,59,30,30.54,30.23,4,2,6,0.07
2013-2-11,52.4,46.0,39.2,50.9,44.0,36.4,98,93,63,30.23,29.94,8,3,10,0.08
2013-2-12,56.9,49.0,42.3,40.5,29.0,24.2,85,47,29,30.10,29.94,9,3,14,0.05
2013-2-13,44.2,42.9,42.5,40.8,40.5,40.2,93,91,87,29.97,29.86,2,0,3,0.00
2013-2-14,53.1,46.0,35.1,32.2,30.8,28.9,82,57,41,30.10,29.99,6,2,8,0.00
2013-2-15,59.4,42.2,28.7,39.3,32.3,26.7,95,72,37,30.14,29.94,11,3,15,0.04
2013-2-16,39.2,37.5,36.4,33.9,27.1,22.7,85,66,55,30.01,29.92,5,2,8,0.00
2013-2-17,35.1,29.8,23.1,11.5,8.7,6.5,57,41,32,30.33,30.16,15,7,21,0.00
2013-2-18,53.3,35.7,17.8,26.0,18.6,7.8,82,53,30,30.46,30.23,7,2,18,0.00
2013-2-19,48.3,40.5,34.3,44.0,29.3,15.6,97,68,34,30.24,29.89,12,5,18,0.07
2013-2-20,39.3,35.6,33.2,16.7,15.2,13.6,46,43,38,30.08,30.03,10,6,18,0.00
2013-3-2,43.2,36.9,31.8,28.0,23.7,19.9,65,59,50,29.98,29.86,13,7,18,0.00
2013-3-3,39.7,32.4,28.3,23.1,19.0,14.6,67,58,46,30.06,29.95,13,7,16,0.00
2013-3-4,52.9,37.5,24.6,18.1,14.9,10.9,67,43,19,30.17,30.05,11,4,13,0.00
2013-3-5,51.7,41.2,35.0,41.3,30.9,17.1,96,69,41,30.10,29.63,7,2,9,0.81
2013-3-6,43.5,38.3,34.2,37.8,29.0,24.0,96,70,58,30.14,29.62,17,7,25,0.09
2013-3-7,45.8,38.8,30.8,32.3,28.0,24.1,77,65,55,30.32,30.13,11,6,17,0.00
2013-3-8,52.1,41.1,31.7,28.0,25.6,22.9,75,56,33,30.36,30.25,12,3,16,0.00
2013-3-9,61.3,43.8,27.1,33.7,28.6,23.7,88,59,31,30.41,30.26,3,1,7,0.00
2013-3-10,66.2,50.0,32.3,38.6,33.0,28.6,89,56,30,30.35,30.20,5,2,10,0.00
2013-3-11,62.2,53.5,44.4,53.3,39.1,19.7,88,59,37,30.23,29.88,4,1,7,0.01
2013-3-12,62.1,55.2,45.5,56.3,45.2,29.3,97,72,43,30.00,29.73,12,5,16,0.53
2013-3-13,45.1,38.8,32.7,31.5,24.1,15.2,70,55,44,30.21,29.99,12,7,23,0.00
2013-3-14,49.9,36.7,29.9,21.5,17.7,15.5,61,47,27,30.30,30.20,11,6,21,0.00
2013-3-20,52.6,48.3,44.3,20.3,14.4,8.0,38,26,17,29.85,29.81,9,4,16,0.00
2013-3-21,43.7,34.5,29.4,27.3,20.7,12.7,66,57,40,29.89,29.81,10,5,16,0.00
2013-3-24,34.3,34.2,34.2,32.9,32.6,32.4,95,94,93,29.83,29.75,7,7,7,0.08
2013-3-31,56.0,50.6,46.7,50.9,48.2,45.3,97,92,83,29.96,29.83,2,1,3,0.23